• în România
  • Lista ţărilor
  • Pe 7 zile
  • Temperatura apei
  • Hartă satelitară
  • Meteo pe hartă
  • Widget-uri
  • user-avatar
    Intrare

    Meteo pe oră la Salta

    Astăzi, 17 Octombrie, Miercuri

    Timp Temperatura Precipitaţii Vânt Presiune Umiditate
    00:00 +22°C° 0 mm 1 m/s 647 mmHg 54%
    01:00 +21°C° 0 mm 1 m/s 647 mmHg 54%
    02:00 +21°C° 0 mm 1 m/s 647 mmHg 54%
    03:00 +20°C° 0 mm 2 m/s 647 mmHg 52%
    04:00 +20°C° 0 mm 2 m/s 647 mmHg 49%
    05:00 +20°C° 0 mm 2 m/s 647 mmHg 46%
    06:00 +23°C° 0 mm 2 m/s 648 mmHg 41%
    07:00 +25°C° 0 mm 1 m/s 649 mmHg 36%
    08:00 +27°C° 0 mm 1 m/s 650 mmHg 31%
    09:00 +29°C° 0 mm 2 m/s 650 mmHg 26%
    10:00 +32°C° 0 mm 2 m/s 651 mmHg 21%
    11:00 +35°C° 0 mm 2 m/s 651 mmHg 15%
    12:00 +36°C° 0 mm 3 m/s 650 mmHg 15%
    13:00 +36°C° 0 mm 4 m/s 650 mmHg 15%
    14:00 +37°C° 0 mm 4 m/s 649 mmHg 14%
    15:00 +36°C° 0 mm 4 m/s 649 mmHg 18%
    16:00 +35°C° 0 mm 4 m/s 648 mmHg 21%
    17:00 +34°C° 0 mm 4 m/s 648 mmHg 25%
    18:00 +31°C° 0.3 mm 3 m/s 648 mmHg 33%
    19:00 +29°C° 0.3 mm 2 m/s 648 mmHg 42%
    20:00 +26°C° 0.3 mm 1 m/s 648 mmHg 50%
    21:00 +26°C° 0.1 mm 1 m/s 649 mmHg 53%
    22:00 +25°C° 0.1 mm 1 m/s 649 mmHg 55%
    23:00 +25°C° 0.1 mm 1 m/s 649 mmHg 57%

    Mâine, 18 Octombrie, Joi

    Timp Temperatura Precipitaţii Vânt Presiune Umiditate
    00:00 +24°C° 0.2 mm 1 m/s 649 mmHg 57%
    01:00 +24°C° 0.2 mm 1 m/s 649 mmHg 58%
    02:00 +24°C° 0.2 mm 1 m/s 649 mmHg 59%
    03:00 +23°C° 0 mm 1 m/s 649 mmHg 57%
    04:00 +23°C° 0 mm 2 m/s 649 mmHg 54%
    05:00 +21°C° 0 mm 2 m/s 649 mmHg 52%
    06:00 +24°C° 0 mm 2 m/s 650 mmHg 46%
    07:00 +26°C° 0 mm 1 m/s 651 mmHg 40%
    08:00 +28°C° 0 mm 1 m/s 652 mmHg 34%
    09:00 +30°C° 0 mm 2 m/s 652 mmHg 30%
    10:00 +32°C° 0 mm 2 m/s 652 mmHg 26%
    11:00 +35°C° 0 mm 2 m/s 653 mmHg 21%
    12:00 +36°C° 0 mm 3 m/s 652 mmHg 22%
    13:00 +36°C° 0 mm 3 m/s 652 mmHg 22%
    14:00 +36°C° 0 mm 4 m/s 651 mmHg 22%
    15:00 +35°C° 0.2 mm 4 m/s 650 mmHg 28%
    16:00 +34°C° 0.2 mm 4 m/s 650 mmHg 34%
    17:00 +33°C° 0.2 mm 5 m/s 649 mmHg 40%
    18:00 +29°C° 1.9 mm 3 m/s 649 mmHg 51%
    19:00 +27°C° 1.9 mm 2 m/s 650 mmHg 61%
    20:00 +25°C° 1.9 mm 1 m/s 650 mmHg 72%
    21:00 +25°C° 0.4 mm 1 m/s 650 mmHg 72%
    22:00 +25°C° 0.4 mm 1 m/s 651 mmHg 73%
    23:00 +24°C° 0.4 mm 1 m/s 651 mmHg 73%

    Poimâine, 19 Octombrie, Vineri

    Timp Temperatura Precipitaţii Vânt Presiune Umiditate
    00:00 +24°C° 0.3 mm 1 m/s 651 mmHg 75%
    01:00 +23°C° 0.3 mm 1 m/s 651 mmHg 77%
    02:00 +23°C° 0.3 mm 2 m/s 651 mmHg 79%
    03:00 +21°C° 0 mm 2 m/s 650 mmHg 79%
    04:00 +21°C° 0 mm 2 m/s 650 mmHg 78%
    05:00 +21°C° 0 mm 2 m/s 650 mmHg 78%
    06:00 +23°C° 0 mm 2 m/s 651 mmHg 73%
    07:00 +24°C° 0 mm 2 m/s 652 mmHg 68%
    08:00 +25°C° 0 mm 2 m/s 653 mmHg 64%
    09:00 +26°C° 0 mm 2 m/s 653 mmHg 59%
    10:00 +27°C° 0 mm 3 m/s 653 mmHg 55%
    11:00 +28°C° 0 mm 3 m/s 653 mmHg 51%
    12:00 +29°C° 0.4 mm 3 m/s 652 mmHg 51%
    13:00 +29°C° 0.4 mm 3 m/s 652 mmHg 52%
    14:00 +29°C° 0.4 mm 3 m/s 651 mmHg 52%
    15:00 +28°C° 0.6 mm 3 m/s 650 mmHg 56%
    16:00 +27°C° 0.6 mm 3 m/s 650 mmHg 60%
    17:00 +26°C° 0.6 mm 3 m/s 650 mmHg 64%
    18:00 +25°C° 0.7 mm 2 m/s 650 mmHg 70%
    19:00 +24°C° 0.7 mm 2 m/s 651 mmHg 76%
    20:00 +23°C° 0.7 mm 1 m/s 651 mmHg 81%
    21:00 +22°C° 0.3 mm 1 m/s 651 mmHg 82%
    22:00 +22°C° 0.3 mm 1 m/s 652 mmHg 82%
    23:00 +22°C° 0.3 mm 1 m/s 652 mmHg 83%

    20 Octombrie, Sâmbătă

    Timp Temperatura Precipitaţii Vânt Presiune Umiditate
    00:00 +22°C° 0 mm 1 m/s 652 mmHg 82%
    01:00 +22°C° 0 mm 1 m/s 651 mmHg 82%
    02:00 +21°C° 0 mm 1 m/s 651 mmHg 82%
    03:00 +19°C° 0 mm 0 m/s 651 mmHg 82%
    04:00 +19°C° 0 mm 0 m/s 651 mmHg 83%
    05:00 +19°C° 0 mm 0 m/s 651 mmHg 84%
    06:00 +22°C° 0 mm 1 m/s 651 mmHg 80%
    07:00 +23°C° 0 mm 1 m/s 652 mmHg 75%
    08:00 +24°C° 0 mm 1 m/s 653 mmHg 70%
    09:00 +25°C° 0.2 mm 2 m/s 652 mmHg 66%
    10:00 +26°C° 0.2 mm 2 m/s 652 mmHg 62%
    11:00 +27°C° 0.2 mm 2 m/s 652 mmHg 58%
    12:00 +27°C° 0.2 mm 2 m/s 651 mmHg 58%
    13:00 +28°C° 0.2 mm 3 m/s 650 mmHg 57%
    14:00 +28°C° 0.2 mm 3 m/s 650 mmHg 57%
    15:00 +27°C° 0.3 mm 3 m/s 649 mmHg 59%
    16:00 +27°C° 0.3 mm 3 m/s 649 mmHg 62%
    17:00 +26°C° 0.3 mm 3 m/s 648 mmHg 64%
    18:00 +25°C° 0.2 mm 2 m/s 649 mmHg 68%
    19:00 +24°C° 0.2 mm 1 m/s 649 mmHg 73%
    20:00 +23°C° 0.2 mm 1 m/s 649 mmHg 77%
    21:00 +23°C° 0.2 mm 1 m/s 650 mmHg 79%
    22:00 +23°C° 0.2 mm 1 m/s 650 mmHg 80%
    23:00 +20°C° 0.2 mm 0 m/s 650 mmHg 81%

    21 Octombrie, Duminică

    Timp Temperatura Precipitaţii Vânt Presiune Umiditate
    00:00 +20°C° 0 mm 0 m/s 650 mmHg 82%
    01:00 +20°C° 0 mm 0 m/s 649 mmHg 83%
    02:00 +19°C° 0 mm 0 m/s 649 mmHg 83%
    03:00 +19°C° 0 mm 0 m/s 649 mmHg 85%
    04:00 +19°C° 0 mm 0 m/s 649 mmHg 86%
    05:00 +19°C° 0 mm 0 m/s 649 mmHg 87%
    06:00 +22°C° 0 mm 1 m/s 650 mmHg 80%
    07:00 +23°C° 0 mm 1 m/s 651 mmHg 74%
    08:00 +25°C° 0 mm 1 m/s 651 mmHg 68%
    09:00 +26°C° 0 mm 2 m/s 651 mmHg 62%
    10:00 +28°C° 0 mm 2 m/s 651 mmHg 56%
    11:00 +29°C° 0 mm 3 m/s 651 mmHg 50%
    12:00 +29°C° 0.2 mm 3 m/s 650 mmHg 50%
    13:00 +30°C° 0.2 mm 3 m/s 649 mmHg 50%
    14:00 +30°C° 0.2 mm 3 m/s 648 mmHg 51%
    15:00 +29°C° 0.3 mm 3 m/s 648 mmHg 54%
    16:00 +28°C° 0.3 mm 3 m/s 648 mmHg 58%
    17:00 +28°C° 0.3 mm 3 m/s 647 mmHg 61%
    18:00 +27°C° 0.2 mm 2 m/s 647 mmHg 66%
    19:00 +25°C° 0.2 mm 2 m/s 648 mmHg 71%
    20:00 +24°C° 0.2 mm 1 m/s 648 mmHg 76%
    21:00 +24°C° 0 mm 1 m/s 648 mmHg 77%
    22:00 +23°C° 0 mm 1 m/s 648 mmHg 78%
    23:00 +21°C° 0 mm 0 m/s 648 mmHg 80%

    22 Octombrie, Luni

    Timp Temperatura Precipitaţii Vânt Presiune Umiditate
    00:00 +21°C° 0 mm 0 m/s 648 mmHg 81%
    01:00 +22°C° 0 mm 1 m/s 648 mmHg 82%
    02:00 +22°C° 0 mm 1 m/s 648 mmHg 83%
    03:00 +22°C° 0 mm 1 m/s 648 mmHg 83%
    04:00 +22°C° 0 mm 1 m/s 648 mmHg 82%
    05:00 +21°C° 0 mm 1 m/s 648 mmHg 82%
    06:00 +23°C° 0 mm 1 m/s 648 mmHg 76%
    07:00 +24°C° 0 mm 1 m/s 649 mmHg 70%
    08:00 +26°C° 0 mm 1 m/s 650 mmHg 64%
    09:00 +27°C° 0 mm 2 m/s 650 mmHg 59%
    10:00 +29°C° 0 mm 2 m/s 650 mmHg 54%
    11:00 +30°C° 0 mm 2 m/s 650 mmHg 48%
    12:00 +31°C° 0.4 mm 3 m/s 649 mmHg 48%
    13:00 +31°C° 0.4 mm 3 m/s 648 mmHg 47%
    14:00 +31°C° 0.4 mm 3 m/s 648 mmHg 47%
    15:00 +30°C° 0.6 mm 3 m/s 647 mmHg 51%
    16:00 +29°C° 0.6 mm 3 m/s 647 mmHg 55%
    17:00 +29°C° 0.6 mm 3 m/s 647 mmHg 59%
    18:00 +27°C° 0.9 mm 2 m/s 647 mmHg 65%
    19:00 +26°C° 0.9 mm 2 m/s 647 mmHg 72%
    20:00 +24°C° 0.9 mm 1 m/s 648 mmHg 78%
    21:00 +24°C° 0.2 mm 1 m/s 648 mmHg 78%
    22:00 +23°C° 0.2 mm 1 m/s 648 mmHg 79%
    23:00 +23°C° 0.2 mm 1 m/s 649 mmHg 79%
    Arată mai mult